COSMOS 1275 DEB, 12672

Orbit data source: Space-Track

COSMOS 1275 DEB, 12672 is space debris in LEO originally from a launch on Thu, 04 Jun 1981 UTC launched from the Plesetsk Missile And Space Complex (PKMTR). Debris objects in space refer to the collection of defunct objects orbiting the Earth. Examples of debris include non-operational satellites, rocket bodies, and fragments generated from explosions, collisions, or faulty payload assembly.

Loading next visibility...
Identifier
12672, 1981-053AC
Orbit
LEO
Country
Flag of CISCIS
Related business
Manufacturer
Unknown
Mission
Spacecraft
Bus & Motor
Unknown
Mass
Unknown
Launch date (UTC)
1981-06-04 (45 years ago)
Launch vehicle
Unknown
Launch site
Plesetsk Missile And Space Complex (PKMTR)
Object type
Payload
Rocket body
Debris
Shape & HBR
Unknown shape, 0.3 m
Radar Cross Section
Medium (>0.1 m² and <1 m²)

Expand to show TLE details & history
Last TLE update: 11 hours ago

TLE from 11 hours ago
0 COSMOS 1275 DEB
1 12672U 81053AC  26127.21741329  .00000425  00000-0  36771-3 0  9990
2 12672  82.9448 201.0273 0025808  19.8048  34.0422 13.84055716252748
Epoch: 2026-05-07T05:13Z
TLE epoch observation values (Epoch: 2026-05-07T05:13:04.508Z)
Latitude
53.518°
Longitude
-92.72431°
Altitude
942.645 km
Speed
7.393 km/s
True Right ascension
14h 02m 26s
True Declination
53° 21' 27"
Sunlit
Object was in daylight at epoch
Visualization orbit readout
Latitude
Unknown
Longitude
Unknown
Altitude
Unknown
Speed
Unknown
Apparent Right ascension
Unknown
Apparent Declination
Unknown
Sunlit
N/A
Visualization observer readout
Local Sidereal Time
00:36:13
Azimuth
Unknown
Elevation
Unknown
Doppler factor
Unknown
Orbital elements
Apogee altitude
965.577 km
Perigee altitude
927.769 km
Semi-major axis
7,324.81 km
Eccentricity
0.00258
Inclination
82.9448°
RAAN
201.0273°
Arg. of periapsis
19.8048°
True anomaly
34.2082°
Mean anomaly
34.0422°
Eccentric anomaly
34.12515°
Mean motion
3.46217 °/min
Orbital period
103.98 mins
BSTAR
0.00036771
Loading maneuver chart data...
Computing Atmospheric mass density...
Loading historical data...
Loading historical data...
Loading historical data...
Loading historical data...
Loading historical data...
Loading historical data...
Loading historical data...

Documentation

Showing up to 5 results
|